Regional Weather Roundup
Issued by NWS

Home | Current Version | Previous Version | Text Only | Print | Product List | Glossary Off
Versions: 1 2 3 4 5 6 7 8 9 10 11 12 13 14 15 16 17 18 19 20 21 22 23 24 25 26 27 28 29 30 31 32 33 34 35 36 37 38 39 40 41 42 43 44 45 46 47 48 49 50

000
ASUS43 KLOT 311508
RWRIL

ILLINOIS REGIONAL WEATHER ROUNDUP
NATIONAL WEATHER SERVICE CHICAGO/ROMEOVILLE IL
1000 AM CDT WED AUG 31 2016

NOTE: "FAIR" INDICATES FEW OR NO CLOUDS BELOW 12,000 FEET WITH NO
SIGNIFICANT WEATHER AND/OR OBSTRUCTIONS TO VISIBILITY.

* THESE STATIONS ARE NOT UNDER NWS QUALITY CONTROL. THEY ALSO MAY NOT
  REPORT WEATHER SUCH AS PRECIPITATION OR FOG.

ILZ001-002-007-009-015-016-024-311600-
NORTHWEST ILLINOIS

CITY           SKY/WX    TMP DP  RH WIND       PRES   REMARKS
MOLINE         CLOUDY    72  64  76 NE7       30.10S
STERLING*      PTSUNNY   73  67  81 NE8       30.10S
SAVANNA*       MOSUNNY   71  65  82 NE8       30.11S
$$

ILZ003-004-008-010-011-017-018-311600-
NORTH CENTRAL ILLINOIS

CITY           SKY/WX    TMP DP  RH WIND       PRES   REMARKS
ROCKFORD       PTSUNNY   73  60  63 N10       30.11S
FREEPORT*      PTSUNNY   68  63  82 N6        30.13S
ROCHELLE*      MOSUNNY   70  62  75 NE9       30.10S
DE KALB*       MOSUNNY   71  62  75 N9        30.10S
$$

ILZ005-006-012>014-019>023-311600-
NORTHEAST ILLINOIS

CITY           SKY/WX    TMP DP  RH WIND       PRES   REMARKS
CHICAGO-OHARE  PTSUNNY   73  62  68 N13G21    30.06S
CHICAGO-MIDWAY PTSUNNY   75  62  64 N15       30.06R
AURORA         MOSUNNY   73  63  70 N8        30.07F
LANSING*       CLOUDY    73  69  88 CALM      30.06R
JOLIET*        MOSUNNY   76  67  75 NE7       30.06S
WAUKEGAN       MOSUNNY   72  61  68 N12G20    30.08R
DUPAGE AIRPORT SUNNY     73  62  68 N12       30.07S
KANKAKEE*      CLOUDY    76  70  83 N5        30.06R
WHEELING       SUNNY     74  61  63 N15       30.08S
MORRIS*        CLOUDY    74  67  79 CALM      30.06R
ROMEOVILLE*    SUNNY     74  67  81 NE8       30.06F
NORTHERLY ISL    N/A     71  63  75 N12         N/A
$$

LMZ740>746-311600-
SOUTHERN LAKE MICHIGAN

STATION/POSITION SKY/WX   TEMP    WIND        PRES    VSBY  WAVE
                          AIR SEA DIR/SP/G                  HT/PER
                          (F)     (DEG/KT/KT) (MB)    (MI)  (FT/S)
SOUTHERN BUOY              70 75   40/ 17/ 21 1017.0R         4/ 6
WILMETTE HARBOR            69 70   10/ 16/ 19   N/A           5/ 4
HARRISON CRIB              69     340/ 21/ 22   N/A
BURNHAM HARBOR             72     340/ 11/ 15   N/A
CALUMET HARBOR             70     330/ 11/ 17 1017.1S
BURNS HARBOR               73     350/ 11/ 13 1017.6S
MICHIGAN CITY              73     330/  8/  9   N/A
MICHIGAN CITY 6N           74 72  360/ 14/ 17   N/A           3/ 4
ST. JOSEPH                 74 75  360/  8/ 10 1016.2S         2/ 3
$$

ILZ025>027-034>036-040-047-049-050-058-095>099-311600-
WEST-CENTRAL ILLINOIS

CITY           SKY/WX    TMP DP  RH WIND       PRES   REMARKS
QUINCY         MOSUNNY   76  71  85 N6        30.09R
GALESBURG*     CLOUDY    72  67  83 N8        30.10R
MACOMB*        PTSUNNY   74  69  83 N7        30.11R
JACKSONVILLE*  MOSUNNY   76  72  88 N6        30.08R
PITTSFIELD*    MOSUNNY   76  72  88 N3        30.09S
$$

ILZ028>032-037-038-041>044-048-051>054-059>061-311600-
CENTRAL ILLINOIS

CITY           SKY/WX    TMP DP  RH WIND       PRES   REMARKS
PONTIAC        CLOUDY    74  72  92 N5        30.07R
BLOOMINGTON    MOSUNNY   76  70  82 N7        30.07
DECATUR        CLOUDY    78  69  73 N5        30.05S HX  80
PEORIA         CLOUDY    72  72 100 N5        30.07S
LACON*         CLOUDY    73  67  84 NE6       30.07R
LINCOLN*       CLOUDY    76  73  89 N5        30.06R
SPRINGFIELD    MOSUNNY   78  71  79 N5        30.07R HX  80
TAYLORVILLE    MOSUNNY   74  71  89 CALM      30.06R
$$

ILZ033-039-045-046-055>057-062-063-311600-
EAST-CENTRAL ILLINOIS

CITY           SKY/WX    TMP DP  RH WIND       PRES   REMARKS
CHAMPAIGN      MOSUNNY   78  70  76 N6        30.05S HX  80
RANTOUL*       MOSUNNY   79  70  74 N3        30.05S HX  82
MATTOON        PTSUNNY   75  70  84 N3        30.04S
PARIS*         MOSUNNY   77  73  86 CALM      30.05S
$$

ILZ079-100>102-311600-
SOUTHWEST ILLINOIS

CITY           SKY/WX    TMP DP  RH WIND       PRES   REMARKS
ALTON          MOSUNNY   77  73  88 CALM      30.06
BELLEVILLE     CLOUDY    78  76  94 NE3       30.05S HX  82
CAHOKIA*       CLOUDY    78  72  81 CALM      30.06R HAZE    HX  80
SPARTA*        CLOUDY    73  72  97 CALM      30.07S FOG
$$

ILZ064>066-069>071-074>076-080>082-084>086-088>090-092>094-311600-
SOUTH-CENTRAL ILLINOIS

CITY           SKY/WX    TMP DP  RH WIND       PRES   REMARKS
CARBONDALE     PTSUNNY   76  70  82 NW5       30.06S
CAIRO*         SUNNY     81  75  83 N6        30.03S HX  86
EFFINGHAM*     PTSUNNY   78  75  92 NW3       30.07R HX  80
MARION         CLOUDY    77  73  88 N6        30.06
MT. VERNON     PTSUNNY   79  70  73 CALM      30.06S HX  81
CENTRALIA*     CLOUDY    76  74  94 NW5       30.05S FOG
SALEM*         CLOUDY    75  74  95 CALM      30.06S FOG
METROPOLIS*    SUNNY     82  73  73 N5        30.03S HX  88
$$

ILZ067-068-072-073-078-083-087-091-311600-
SOUTHEAST ILLINOIS

CITY           SKY/WX    TMP DP  RH WIND       PRES   REMARKS
LAWRENCEVILLE  MOSUNNY   80  73  79 N5        30.03S HX  84
FLORA*         CLOUDY    76  74  93 W5        30.05S FOG
FAIRFIELD*     PTSUNNY   78  73  86 NW3       30.04S HX  80
HARRISBURG*    MOSUNNY   80  74  81 NW7       30.04F HX  84
ROBINSON*      SUNNY     78  73  85 N3        30.04S HX  80
CARMI*         SUNNY     81  74  80 CALM      30.03S HX  86
$$

ABBREVIATIONS USED IN REMARKS
   TC - TEMPERATURE IN CELSIUS
  WCI - WIND CHILL INDEX
   HX - HEAT INDEX
  VSB - VISIBILITY
$$





USA.gov is the U.S. government's official web portal to all federal, state and local government web resources and services.